Location: Diguira
(13.1838°N, 4.9109°W)
Time: 17:21:07
(UTC+00:00)

NOSS 3-4 (A) - Pass Details

Date: 18 September 2020
Orbit: 886 x 1326 km, 63.4° (Epoch: 22 October)

Event Time Altitude Azimuth Distance (km) Brightness Sun altitude
Rises 20:30:55 0° 218° (SW) 3,539 6.8 -32.9°
Reaches altitude 10° 20:33:33 10° 224° (SW) 2,568 6.0 -33.6°
Maximum altitude 20:39:09 45° 296° (WNW) 1,189 4.2 -34.9°
Enters shadow 20:39:18 45° 300° (WNW) 1,191 4.2 -34.9°
